Location: Kerguer�zec
(48.4509°N, 4.7600°W)
Time: 18:40:39
(UTC+00:00)

Cosmos-2242 - Pass Details

Date: 09 April 2020
Orbit: 590 x 618 km, 82.5° (Epoch: 24 May)

Event Time Altitude Azimuth Distance (km) Brightness Sun altitude
Exits shadow 21:45:30 75° 38° (NE) 635 3.0 -24.1°
Drops below altitude 10° 21:49:35 10° 11° (N) 1,979 6.1 -24.5°
Sets 21:51:49 0° 11° (N) 2,893 7.0 -24.8°
